| time (UTC) | temp C | wind direction | speed KPH | gust KPH | rain 1hr cm | rain 24hr cm | rain mn cm | humidity % | barometer mb |
| 20260510201525 | 27 | 150 | 1.6 | 11.3 | 0.00 | 0.00 | 0.00 | 38 | 970.5 |
| 20260510200025 | 27 | 202 | 0.0 | 6.4 | 0.00 | 0.00 | 0.00 | 36 | 970.3 |
| 20260510194526 | 28 | 235 | 6.4 | 11.3 | 0.00 | 0.00 | 0.00 | 37 | 970.3 |
| 20260510193020 | 28 | 229 | 3.2 | 9.7 | 0.00 | 0.00 | 0.00 | 36 | 970.5 |
| 20260510191535 | 27 | 223 | 0.0 | 6.4 | 0.00 | 0.00 | 0.00 | 37 | 970.6 |
| 20260510190020 | 27 | 223 | 1.6 | 11.3 | 0.00 | 0.00 | 0.00 | 35 | 970.7 |
| 20260510184514 | 26 | 330 | 1.6 | 4.8 | 0.00 | 0.00 | 0.00 | 41 | 970.8 |
| 20260510183014 | 26 | 344 | 3.2 | 8.0 | 0.00 | 0.00 | 0.00 | 42 | 970.9 |
| 20260510181513 | 26 | 325 | 3.2 | 9.7 | 0.00 | 0.00 | 0.00 | 38 | 971.1 |
| 20260510180016 | 26 | 252 | 3.2 | 16.1 | 0.00 | 0.00 | 0.00 | 45 | 971.2 |
| 20260510174512 | 27 | 163 | 3.2 | 12.9 | 0.00 | 0.00 | 0.00 | 39 | 971.3 |
| 20260510173010 | 27 | 239 | 1.6 | 9.7 | 0.00 | 0.00 | 0.00 | 43 | 971.4 |
| 20260510171512 | 26 | 136 | 3.2 | 9.7 | 0.00 | 0.00 | 0.00 | 40 | 971.4 |
| 20260510170008 | 26 | 290 | 3.2 | 17.7 | 0.00 | 0.00 | 0.00 | 41 | 971.6 |
| 20260510164511 | 25 | 296 | 1.6 | 9.7 | 0.00 | 0.00 | 0.00 | 45 | 971.6 |
| 20260510163007 | 26 | 355 | 3.2 | 12.9 | 0.00 | 0.00 | 0.00 | 39 | 971.9 |
| 20260510161505 | 25 | 267 | 3.2 | 6.4 | 0.00 | 0.00 | 0.00 | 43 | 972.0 |
| 20260510160132 | 25 | 271 | 1.6 | 8.0 | 0.00 | 0.00 | 0.00 | 44 | 971.9 |
| 20260510154607 | 23 | 325 | 1.6 | 16.1 | 0.00 | 0.00 | 0.00 | 47 | 971.9 |
| 20260510153058 | 23 | 327 | 4.8 | 19.3 | 0.00 | 0.00 | 0.00 | 45 | 972.1 |
| 20260510151601 | 23 | 312 | 9.7 | 24.1 | 0.00 | 0.00 | 0.00 | 45 | 972.3 |
| 20260510150059 | 23 | 53 | 3.2 | 20.9 | 0.00 | 0.00 | 0.00 | 48 | 972.2 |
| 20260510144615 | 23 | 339 | 4.8 | 9.7 | 0.00 | 0.00 | 0.00 | 47 | 972.2 |
| 20260510143053 | 22 | 306 | 4.8 | 12.9 | 0.00 | 0.00 | 0.00 | 51 | 972.2 |
| 20260510141548 | 22 | 288 | 6.4 | 16.1 | 0.00 | 0.00 | 0.00 | 53 | 972.2 |
| 20260510140045 | 22 | 296 | 3.2 | 11.3 | 0.00 | 0.00 | 0.00 | 58 | 972.3 |
| 20260510134549 | 21 | 284 | 3.2 | 11.3 | 0.00 | 0.00 | 0.00 | 58 | 972.3 |
| 20260510133042 | 20 | 307 | 1.6 | 9.7 | 0.00 | 0.00 | 0.00 | 63 | 972.2 |
| 20260510131538 | 20 | 317 | 4.8 | 12.9 | 0.00 | 0.00 | 0.00 | 67 | 972.3 |
| 20260510130031 | 18 | 65 | 0.0 | 4.8 | 0.00 | 0.00 | 0.00 | 78 | 972.2 |
| 20260510124527 | 17 | 65 | 0.0 | 3.2 | 0.00 | 0.00 | 0.00 | 83 | 972.1 |
| 20260510123029 | 16 | 52 | 1.6 | 3.2 | 0.00 | 0.00 | 0.00 | 85 | 971.9 |
| 20260510121521 | 15 | 327 | 0.0 | 1.6 | 0.00 | 0.00 | 0.00 | 87 | 971.6 |
| 20260510120019 | 13 | 281 | 0.0 | 0.0 | 0.00 | 0.00 | 0.00 | 90 | 971.5 |
| 20260510114513 | 12 | 355 | 0.0 | 0.0 | 0.00 | 0.00 | 0.00 | 93 | 971.3 |
| 20260510113018 | 10 | 146 | 0.0 | 0.0 | 0.00 | 0.00 | 0.00 | 96 | 970.9 |
| 20260510111508 | 8 | 173 | 0.0 | 0.0 | 0.00 | 0.00 | 0.00 | 96 | 970.6 |
| 20260510110022 | 8 | 194 | 0.0 | 0.0 | 0.00 | 0.00 | 0.00 | 96 | 970.5 |
| 20260510104507 | 7 | 194 | 0.0 | 1.6 | 0.00 | 0.00 | 0.00 | 97 | 970.4 |
| 20260510103004 | 7 | 360 | 1.6 | 4.8 | 0.00 | 0.00 | 0.00 | 96 | 970.1 |
| 20260510101502 | 7 | 360 | 0.0 | 3.2 | 0.00 | 0.00 | 0.00 | 96 | 970.0 |
| 20260510100101 | 7 | 360 | 0.0 | 3.2 | 0.00 | 0.00 | 0.00 | 96 | 970.0 |
| 20260510094611 | 7 | 360 | 0.0 | 3.2 | 0.00 | 0.00 | 0.00 | 95 | 969.8 |
| 20260510093119 | 8 | 159 | 0.0 | 4.8 | 0.00 | 0.00 | 0.00 | 95 | 969.8 |
| 20260510091559 | 8 | 158 | 1.6 | 4.8 | 0.00 | 0.00 | 0.00 | 96 | 969.6 |
| 20260510090055 | 8 | 360 | 0.0 | 6.4 | 0.00 | 0.00 | 0.00 | 95 | 969.5 |
| 20260510084557 | 8 | 360 | 0.0 | 1.6 | 0.00 | 0.00 | 0.00 | 94 | 969.2 |
| 20260510083054 | 8 | 360 | 0.0 | 4.8 | 0.00 | 0.00 | 0.00 | 93 | 969.3 |
| 20260510081549 | 9 | 257 | 0.0 | 3.2 | 0.00 | 0.00 | 0.00 | 92 | 969.1 |
| 20260510080048 | 10 | 257 | 0.0 | 0.0 | 0.00 | 0.00 | 0.00 | 89 | 968.8 |
| 20260510074547 | 11 | 257 | 0.0 | 3.2 | 0.00 | 0.00 | 0.00 | 84 | 968.7 |
| 20260510073048 | 13 | 258 | 1.6 | 11.3 | 0.00 | 0.00 | 0.00 | 84 | 968.7 |
| 20260510071550 | 11 | 273 | 4.8 | 8.0 | 0.00 | 0.00 | 0.00 | 95 | 968.5 |
| 20260510070042 | 9 | 360 | 1.6 | 4.8 | 0.00 | 0.00 | 0.00 | 96 | 968.5 |
| 20260510064537 | 9 | 360 | 0.0 | 0.0 | 0.00 | 0.00 | 0.00 | 95 | 968.8 |
| 20260510063036 | 9 | 360 | 0.0 | 0.0 | 0.00 | 0.00 | 0.00 | 94 | 968.8 |
| 20260510061534 | 9 | 360 | 0.0 | 0.0 | 0.00 | 0.00 | 0.00 | 94 | 969.0 |
| 20260510060032 | 10 | 360 | 0.0 | 0.0 | 0.00 | 0.00 | 0.00 | 94 | 968.9 |
| 20260510054530 | 10 | 360 | 0.0 | 0.0 | 0.00 | 0.00 | 0.00 | 94 | 969.0 |
| 20260510053047 | 10 | 360 | 0.0 | 0.0 | 0.00 | 0.00 | 0.00 | 93 | 968.9 |
| 20260510051526 | 10 | 360 | 0.0 | 0.0 | 0.00 | 0.00 | 0.00 | 93 | 969.2 |
| 20260510050022 | 11 | 360 | 0.0 | 0.0 | 0.00 | 0.00 | 0.00 | 92 | 969.2 |
| 20260510044520 | 11 | 360 | 0.0 | 0.0 | 0.00 | 0.00 | 0.00 | 93 | 969.0 |
| 20260510043034 | 11 | 360 | 0.0 | 0.0 | 0.00 | 0.00 | 0.00 | 92 | 969.1 |
| 20260510041615 | 12 | 360 | 0.0 | 1.6 | 0.00 | 0.00 | 0.00 | 92 | 969.1 |
| 20260510040017 | 12 | 360 | 0.0 | 0.0 | 0.00 | 0.00 | 0.00 | 91 | 969.1 |
| 20260510034510 | 12 | 232 | 0.0 | 3.2 | 0.00 | 0.00 | 0.00 | 91 | 969.1 |
| 20260510033010 | 13 | 232 | 0.0 | 1.6 | 0.00 | 0.00 | 0.00 | 91 | 969.1 |
| 20260510031511 | 13 | 232 | 0.0 | 0.0 | 0.00 | 0.00 | 0.00 | 90 | 969.0 |
| 20260510030010 | 13 | 232 | 0.0 | 3.2 | 0.00 | 0.00 | 0.00 | 90 | 969.0 |
| 20260510024508 | 14 | 232 | 0.0 | 0.0 | 0.00 | 0.00 | 0.00 | 88 | 968.7 |
| 20260510023008 | 15 | 232 | 0.0 | 0.0 | 0.00 | 0.00 | 0.00 | 86 | 968.7 |
| 20260510021521 | 15 | 232 | 0.0 | 1.6 | 0.00 | 0.00 | 0.00 | 85 | 968.4 |
| 20260510020006 | 16 | 232 | 0.0 | 3.2 | 0.00 | 0.00 | 0.00 | 85 | 968.3 |
| 20260510014506 | 16 | 232 | 0.0 | 3.2 | 0.00 | 0.00 | 0.00 | 84 | 968.0 |
| 20260510013005 | 16 | 232 | 0.0 | 0.0 | 0.00 | 0.00 | 0.00 | 79 | 967.9 |
| 20260510011504 | 17 | 232 | 0.0 | 0.0 | 0.00 | 0.00 | 0.00 | 77 | 967.6 |
| 20260510010004 | 18 | 232 | 0.0 | 0.0 | 0.00 | 0.00 | 0.00 | 73 | 967.3 |
| 20260510004503 | 18 | 232 | 0.0 | 1.6 | 0.00 | 0.00 | 0.00 | 68 | 966.9 |
| 20260510003003 | 20 | 232 | 0.0 | 4.8 | 0.00 | 0.00 | 0.00 | 65 | 966.7 |
| 20260510001502 | 21 | 179 | 0.0 | 1.6 | 0.00 | 0.00 | 0.00 | 57 | 966.8 |
| 20260510000001 | 22 | 254 | 0.0 | 1.6 | 0.00 | 0.00 | 0.00 | 54 | 966.6 |
| 20260509234601 | 22 | 34 | 0.0 | 4.8 | 0.00 | 0.00 | 0.00 | 52 | 966.3 |
| 20260509233100 | 22 | 320 | 0.0 | 6.4 | 0.00 | 0.00 | 0.00 | 50 | 966.3 |
| 20260509231601 | 23 | 280 | 1.6 | 6.4 | 0.00 | 0.00 | 0.00 | 49 | 966.2 |
| 20260509230059 | 23 | 344 | 8.0 | 16.1 | 0.00 | 0.00 | 0.00 | 47 | 965.8 |
| 20260509224559 | 24 | 355 | 1.6 | 4.8 | 0.00 | 0.00 | 0.00 | 59 | 965.7 |
| 20260509223102 | 25 | 245 | 1.6 | 6.4 | 0.00 | 0.00 | 0.00 | 58 | 965.8 |
| 20260509221557 | 23 | 188 | 0.0 | 6.4 | 0.00 | 0.00 | 0.00 | 61 | 965.6 |
| 20260509220101 | 24 | 227 | 3.2 | 9.7 | 0.00 | 0.00 | 0.00 | 57 | 965.7 |
| 20260509214624 | 25 | 224 | 0.0 | 9.7 | 0.00 | 0.00 | 0.00 | 53 | 965.6 |
| 20260509213054 | 26 | 217 | 6.4 | 12.9 | 0.00 | 0.00 | 0.00 | 52 | 965.2 |
| 20260509211552 | 25 | 298 | 1.6 | 12.9 | 0.00 | 0.00 | 0.00 | 50 | 965.2 |
| 20260509210052 | 25 | 300 | 3.2 | 9.7 | 0.00 | 0.00 | 0.00 | 50 | 965.2 |
| 20260509204547 | 25 | 228 | 3.2 | 8.0 | 0.00 | 0.00 | 0.00 | 54 | 965.2 |
| 20260509203058 | 25 | 199 | 1.6 | 8.0 | 0.00 | 0.00 | 0.00 | 56 | 965.2 |